Beatrice, NE

4:37 AM CDT on July 27, 2017 (GMT -0500)
Beatrice Municipal

Weather History for KBIE - May, 2014

Change the Weather History Date:

Saturday, May 3, 2014

  Actual Average Record
Temperature  
Mean Temperature 58 °F -  
Max Temperature 75 °F 71 °F 91 °F (1955)
Min Temperature 41 °F 44 °F 29 °F (1976)
Degree Days  
Heating Degree Days 7    
Growing Degree Days 8 (Base 50)    
Moisture  
Dew Point 40 °F    
Average Humidity 52    
Maximum Humidity 89    
Minimum Humidity 29    
Precipitation  
Precipitation 0.00 in - - ()
Sea Level Pressure  
Sea Level Pressure 29.91 in    
Wind  
Wind Speed 3 mph (East)    
Max Wind Speed 8 mph    
Max Gust Speed -    
Visibility 10 miles    
Events      
Averages and records for this station are not official NWS values.
T = Trace of Precipitation, MM = Missing Value Source: NWS Daily Summary

Daily Weather History Graph

Daily Weather History Graph

Search for Another Location

Airport or City:

Trip Planner

Search our weather history database for the weather conditions in past years. The results will help you decide how hot, cold, wet, or windy it might be!

Date:

Astronomy

May. 03, 2014 Rise Set
Actual Time 6:23 AM CDT 8:24 PM CDT
Civil Twilight 5:54 AM CDT 8:54 PM CDT
Nautical Twilight 5:18 AM CDT 9:30 PM CDT
Astronomical Twilight 4:38 AM CDT 10:09 PM CDT
Moon 9:54 AM CDT (5/3) No Moon Set
Length of Visible Light 14h 59m
Length of Day
14h 00m
Waxing Crescent, 20% of the Moon is Illuminated
May 3
Waxing Crescent
May 6
First Quarter
May 14
Full
May 21
Last Quarter
May 28
New

Hourly Weather History & Observations

Time (CDT) Temp. Windchill Dew Point Humidity Pressure Visibility Wind Dir Wind Speed Gust Speed Precip Events Conditions
12:15 AM 54.7 °F - 44.8 °F 69% 29.86 in 10.0 mi NNE 3.5 mph - N/A   Overcast
12:35 AM 52.2 °F - 42.8 °F 70% 29.87 in 10.0 mi North 4.6 mph - N/A   Scattered Clouds
12:55 AM 51.8 °F - 42.3 °F 70% 29.87 in 10.0 mi Calm Calm - N/A   Scattered Clouds
1:15 AM 51.1 °F - 42.6 °F 73% 29.88 in 10.0 mi North 4.6 mph - N/A   Mostly Cloudy
1:35 AM 52.0 °F - 42.8 °F 71% 29.88 in 10.0 mi North 5.8 mph - N/A   Overcast
1:55 AM 52.2 °F - 41.9 °F 68% 29.89 in 10.0 mi North 4.6 mph - N/A   Mostly Cloudy
2:15 AM 51.8 °F - 41.4 °F 68% 29.89 in 10.0 mi North 4.6 mph - N/A   Mostly Cloudy
2:35 AM 50.7 °F - 40.8 °F 69% 29.89 in 10.0 mi North 5.8 mph - N/A   Mostly Cloudy
2:55 AM 49.5 °F - 40.8 °F 72% 29.90 in 10.0 mi Calm Calm - N/A   Clear
3:15 AM 49.6 °F - 40.6 °F 71% 29.90 in 10.0 mi Calm Calm - N/A   Clear
3:35 AM 46.8 °F - 39.6 °F 76% 29.90 in 10.0 mi Calm Calm - N/A   Clear
3:55 AM 44.8 °F - 38.7 °F 79% 29.91 in 10.0 mi Calm Calm - N/A   Clear
4:15 AM 44.8 °F - 39.2 °F 81% 29.91 in 10.0 mi Calm Calm - N/A   Clear
4:35 AM 41.4 °F 38.4 °F 37.6 °F 86% 29.91 in 10.0 mi NW 4.6 mph - N/A   Clear
4:55 AM 44.2 °F - 38.5 °F 80% 29.91 in 10.0 mi Calm Calm - N/A   Clear
5:15 AM 44.8 °F - 38.5 °F 79% 29.92 in 10.0 mi Calm Calm - N/A   Clear
5:35 AM 43.2 °F - 38.3 °F 83% 29.91 in 10.0 mi Calm Calm - N/A   Clear
5:55 AM 42.6 °F - 38.3 °F 85% 29.92 in 10.0 mi Calm Calm - N/A   Clear
6:15 AM 42.6 °F 40.9 °F 38.8 °F 86% 29.92 in 10.0 mi West 3.5 mph - N/A   Clear
6:35 AM 42.1 °F - 39.0 °F 89% 29.92 in 10.0 mi Calm Calm - N/A   Clear
6:55 AM 41.2 °F - 38.1 °F 89% 29.93 in 10.0 mi Calm Calm - N/A   Clear
7:15 AM 43.7 °F - 39.7 °F 86% 29.92 in 10.0 mi Calm Calm - N/A   Clear
7:35 AM 45.7 °F 44.4 °F 41.7 °F 86% 29.93 in 10.0 mi West 3.5 mph - N/A   Clear
7:55 AM 47.7 °F - 42.3 °F 82% 29.95 in 10.0 mi WNW 4.6 mph - N/A   Clear
8:15 AM 50.0 °F - 41.9 °F 74% 29.95 in 10.0 mi West 3.5 mph - N/A   Clear
8:35 AM 52.0 °F - 42.6 °F 70% 29.95 in 10.0 mi NNW 3.5 mph - N/A   Clear
8:55 AM 54.0 °F - 42.1 °F 64% 29.95 in 10.0 mi NNW 3.5 mph - N/A   Clear
9:15 AM 56.5 °F - 42.1 °F 59% 29.95 in 10.0 mi Calm Calm - N/A   Clear
9:35 AM 58.1 °F - 40.5 °F 52% 29.95 in 10.0 mi ENE 4.6 mph - N/A   Clear
9:55 AM 59.5 °F - 41.4 °F 51% 29.96 in 10.0 mi East 3.5 mph - N/A   Clear
10:15 AM 61.0 °F - 40.6 °F 47% 29.96 in 10.0 mi East 3.5 mph - N/A   Clear
10:35 AM 62.6 °F - 39.6 °F 43% 29.95 in 10.0 mi Calm Calm - N/A   Clear
10:55 AM 64.4 °F - 39.2 °F 40% 29.95 in 10.0 mi ENE 5.8 mph - N/A   Clear
11:15 AM 64.6 °F - 38.5 °F 38% 29.95 in 10.0 mi East 3.5 mph - N/A   Clear
11:35 AM 65.7 °F - 37.2 °F 35% 29.95 in 10.0 mi East 4.6 mph - N/A   Clear
11:55 AM 66.4 °F - 37.4 °F 34% 29.95 in 10.0 mi NNW 3.5 mph - N/A   Clear
12:15 PM 68.0 °F - 39.0 °F 35% 29.94 in 10.0 mi SE 4.6 mph - N/A   Clear
12:35 PM 68.4 °F - 39.0 °F 34% 29.94 in 10.0 mi East 3.5 mph - N/A   Clear
12:55 PM 69.1 °F - 38.3 °F 32% 29.93 in 10.0 mi ENE 4.6 mph - N/A   Clear
1:15 PM 70.5 °F - 40.6 °F 34% 29.93 in 10.0 mi SSE 4.6 mph - N/A   Clear
1:35 PM 70.2 °F - 39.4 °F 33% 29.93 in 10.0 mi South 3.5 mph - N/A   Clear
1:55 PM 71.2 °F - 38.3 °F 30% 29.92 in 10.0 mi Calm Calm - N/A   Clear
2:15 PM 71.2 °F - 37.6 °F 29% 29.91 in 10.0 mi Calm Calm - N/A   Clear
2:35 PM 72.0 °F - 38.3 °F 29% 29.92 in 10.0 mi Calm Calm - N/A   Clear
2:55 PM 73.0 °F - 39.2 °F 29% 29.91 in 10.0 mi Calm Calm - N/A   Clear
3:15 PM 72.9 °F - 40.1 °F 31% 29.90 in 10.0 mi SSE 6.9 mph - N/A   Clear
3:35 PM 73.4 °F - 40.6 °F 31% 29.90 in 10.0 mi South 5.8 mph - N/A   Clear
3:55 PM 73.9 °F - 41.2 °F 31% 29.89 in 10.0 mi South 4.6 mph - N/A   Clear
4:15 PM 73.4 °F - 41.5 °F 32% 29.88 in 10.0 mi South 4.6 mph - N/A   Clear
4:35 PM 73.9 °F - 40.6 °F 30% 29.88 in 10.0 mi East 3.5 mph - N/A   Clear
4:55 PM 74.3 °F - 39.9 °F 29% 29.88 in 10.0 mi ESE 6.9 mph - N/A   Clear
5:15 PM 74.7 °F - 40.5 °F 29% 29.88 in 10.0 mi South 4.6 mph - N/A   Clear
5:35 PM 75.0 °F - 41.4 °F 30% 29.89 in 10.0 mi SSE 5.8 mph - N/A   Clear
5:55 PM 75.2 °F - 41.7 °F 30% 29.89 in 10.0 mi South 3.5 mph - N/A   Clear
6:15 PM 74.8 °F - 40.5 °F 29% 29.88 in 10.0 mi SW 4.6 mph - N/A   Clear
6:35 PM 74.8 °F - 42.1 °F 31% 29.89 in 10.0 mi South 4.6 mph - N/A   Clear
6:55 PM 74.5 °F - 40.8 °F 30% 29.88 in 10.0 mi Calm Calm - N/A   Clear
7:15 PM 74.5 °F - 40.3 °F 29% 29.88 in 10.0 mi SE 4.6 mph - N/A   Clear
7:35 PM 73.9 °F - 40.8 °F 30% 29.88 in 10.0 mi ESE 4.6 mph - N/A   Clear
7:55 PM 73.4 °F - 40.3 °F 30% 29.88 in 10.0 mi Calm Calm - N/A   Clear
8:15 PM 71.8 °F - 40.8 °F 33% 29.88 in 10.0 mi East 3.5 mph - N/A   Clear
8:35 PM 69.3 °F - 41.4 °F 36% 29.88 in 10.0 mi East 5.8 mph - N/A   Clear
8:55 PM 67.1 °F - 42.1 °F 40% 29.88 in 10.0 mi East 5.8 mph - N/A   Clear
9:15 PM 66.2 °F - 41.7 °F 41% 29.88 in 10.0 mi East 4.6 mph - N/A   Clear
9:35 PM 64.8 °F - 41.9 °F 43% 29.89 in 10.0 mi East 4.6 mph - N/A   Clear
9:55 PM 63.7 °F - 41.9 °F 45% 29.90 in 10.0 mi East 4.6 mph - N/A   Clear
10:15 PM 62.8 °F - 41.7 °F 46% 29.90 in 10.0 mi East 5.8 mph - N/A   Clear
10:35 PM 62.6 °F - 41.2 °F 45% 29.91 in 10.0 mi East 4.6 mph - N/A   Clear
10:55 PM 61.2 °F - 41.9 °F 49% 29.91 in 10.0 mi ENE 6.9 mph - N/A   Clear
11:15 PM 60.3 °F - 41.9 °F 51% 29.91 in 10.0 mi East 4.6 mph - N/A   Clear
11:35 PM 59.9 °F - 41.4 °F 50% 29.90 in 10.0 mi East 6.9 mph - N/A   Clear
11:55 PM 60.6 °F - 41.0 °F 48% 29.89 in 10.0 mi East 8.1 mph - N/A   Clear